Regional Weather Roundup
Issued by NWS

Home | Current Version | Previous Version | Text Only | Print | Product List | Glossary On
Versions: 1 2 3 4 5 6 7 8 9 10 11 12 13 14 15 16 17 18 19 20 21 22 23 24 25 26 27 28 29 30 31 32 33 34 35 36 37 38 39 40 41 42 43 44 45 46 47 48 49 50
000
ASUS44 KJAN 280710
RWRMS

MISSISSIPPI HOURLY WEATHER ROUNDUP
NATIONAL WEATHER SERVICE JACKSON MS
200 AM CDT WED JUN 28 2017

NOTE: "FAIR: INDICATES FEW OR NO CLOUDS BELOW 12,000 FEET WITH NO
SIGNIFICANT WEATHER AND/OR OBSTRUCTIONS TO VISIBILITY.

MSZ001>002-007>008-010>013-018>021-025>028-034>036-280800-
NORTHWEST MISSISSIPPI

CITY           SKY/WX    TMP DP  RH WIND       PRES   REMARKS
BATESVILLE     FAIR      66  65  95 CALM      30.05F FOG
CLARKSDALE       N/A     70  70 100 E6        30.03F
CLEVELAND      FAIR      72  69  90 E6        30.02S
GREENWOOD      PTCLDY    71  65  81 E3        30.02F
GREENVILLE     MOCLDY    71  65  81 E5        30.01F
OXFORD         FAIR      68  63  83 SE6       30.07F
TUNICA           N/A     68  66  94 E3        30.04F
WINONA         FAIR      67  66  99 CALM      30.04F
$$

MSZ003>006-009-014>017-022>024-029>033-037>039-280800-
NORTHEAST MISSISSIPPI

CITY           SKY/WX    TMP DP  RH WIND       PRES   REMARKS
COLUMBUS AFB   PTCLDY    69  64  84 CALM      30.04F
CORINTH        FAIR      64  63  94 CALM      30.07S FOG
GOLDN TRIANGLE CLEAR     70  61  73 E6        30.02F
STARKVILLE     FAIR      68  64  88 E3        30.06F
TUPELO         PTCLDY    68  64  87 N3        30.06S
$$

MSZ040-058-280800-
CENTRAL MISSISSIPPI

CITY           SKY/WX    TMP DP  RH WIND       PRES   REMARKS
JACKSON INTL   PTCLDY    70  66  87 CALM      30.03F
JACKSON HAWKNS CLEAR     73  65  75 E5        30.03F
MADISON        FAIR      68  66  94 CALM      30.03S
MERIDIAN KEY   CLEAR     69  67  93 CALM      30.04F
MERIDIAN NAS   PTCLDY    70  64  81 CALM      30.05S
RAYMOND        FAIR      68  66  94 CALM      30.02S FOG
VICKSBURG VKS    N/A     70  66  88 CALM      29.99S
$$

MSZ059>079-280800-
SOUTH MISSISSIPPI

CITY           SKY/WX    TMP DP  RH WIND       PRES   REMARKS
COLUMBIA       FAIR      70  68  94 CALM      30.04F
HATTIESBURG    PTCLDY    73  70  90 CALM      30.02F
LAUREL           N/A     68  68 100 CALM      30.04S
MCCOMB         PTCLDY    73  68  84 E3        30.02S
NATCHEZ        CLEAR     69  67  93 CALM      30.02S
PINE BELT      CLOUDY    68  64  88 NE3       30.05S
$$

MSZ080>082-280800-
COASTAL MISSISSIPPI

CITY           SKY/WX    TMP DP  RH WIND       PRES   REMARKS
BILOXI         CLOUDY    78  69  73 E7        29.99F
PASCAGOULA     MOCLDY    75  68  78 E3        30.00F
GULFPORT       CLOUDY    78  69  73 E6        29.99F
$$

LAZ007>009-015>016-023>026-280800-
NORTHEAST LOUISIANA

CITY           SKY/WX    TMP DP  RH WIND       PRES   REMARKS
BASTROP        FAIR      68  67  98 CALM      30.01F
TALLULAH/VBURG CLEAR     70  68  93 SE5       30.01F
VIDALIA        FAIR      70  68  93 CALM      30.00S
$$



USA.gov is the U.S. government's official web portal to all federal, state and local government web resources and services.